Weather History for KFKA - February, 2014

Change the Weather History Date:

Sunday, February 16, 2014

  Actual Average (KRST) Record (KRST)
Temperature  
Mean Temperature 16 °F 20 °F  
Max Temperature 22 °F 28 °F 59 °F (1931)
Min Temperature 9 °F 13 °F -34 °F (1936)
Degree Days  
Heating Degree Days 50 45  
Month to date heating degree days 747  
Since 1 July heating degree days 5355  
Cooling Degree Days 0 0  
Month to date cooling degree days 0  
Year to date cooling degree days 0  
Moisture  
Dew Point 11 °F    
Average Humidity 76    
Maximum Humidity 89    
Minimum Humidity 64    
Precipitation  
Precipitation 0.00 in 0.03 in 0.34 in (2006)
Month to date precipitation 0.43  
Year to date precipitation 1.29  
Snow  
Snow 0.00 in 0.30 in 6.60 in (2006)
Month to date snowfall 5.0  
Since 1 July snowfall 36.4  
Snow Depth -    
Sea Level Pressure  
Sea Level Pressure 30.09 in    
Wind  
Wind Speed 10 mph (NE)    
Max Wind Speed 20 mph    
Max Gust Speed 25 mph    
Visibility 10 miles    
Events Snow    
T = Trace of Precipitation, MM = Missing Value Source: NWS Daily Summary

Daily Weather History Graph

Daily Weather History Graph

Search for Another Location

Airport or City:

Trip Planner

Search our weather history database for the weather conditions in past years. The results will help you decide how hot, cold, wet, or windy it might be!

Date:

Astronomy

Feb. 16, 2014 Rise Set
Actual Time 7:05 AM CST 5:40 PM CST
Civil Twilight 6:36 AM CST 6:09 PM CST
Nautical Twilight 6:02 AM CST 6:43 PM CST
Astronomical Twilight 5:29 AM CST 7:16 PM CST
Moon 7:42 PM CST (2/16) 7:31 AM CST (2/16)
Length of Visible Light 11h 33m
Length of Day
10h 34m
Full, 97% of the Moon is Illuminated
Feb 16
Full
Feb 22
Last Quarter
Mar 1
New
Mar 8
First Quarter
Mar 16
Full

Hourly Weather History & Observations

Time (CST) Temp. Windchill Dew Point Humidity Pressure Visibility Wind Dir Wind Speed Gust Speed Precip Events Conditions
12:14 AM 17.4 °F 4.1 °F 13.6 °F 85% 29.98 in 7.0 mi NNW 12.7 mph 17.3 mph N/A   Overcast
12:35 AM 17.4 °F 4.7 °F 13.6 °F 85% 29.97 in 7.0 mi North 11.5 mph - N/A   Overcast
12:54 AM 17.4 °F 4.7 °F 13.5 °F 84% 29.97 in 7.0 mi North 11.5 mph - N/A   Overcast
1:15 AM 17.4 °F 4.7 °F 13.1 °F 83% 29.98 in 10.0 mi North 11.5 mph 19.6 mph N/A   Overcast
1:35 AM 17.4 °F 4.7 °F 12.9 °F 83% 29.97 in 10.0 mi North 11.5 mph - N/A   Overcast
1:55 AM 17.2 °F 3.9 °F 12.9 °F 83% 29.97 in 10.0 mi North 12.7 mph - N/A   Overcast
2:15 AM 17.1 °F 5.0 °F 12.6 °F 82% 29.98 in 10.0 mi North 10.4 mph - N/A   Overcast
2:34 AM 16.7 °F 4.5 °F 12.2 °F 82% 29.98 in 10.0 mi North 10.4 mph 17.3 mph N/A   Overcast
2:55 AM 16.7 °F 4.5 °F 12.6 °F 84% 30.00 in 10.0 mi NNW 10.4 mph - N/A   Overcast
3:15 AM 16.7 °F 4.5 °F 12.2 °F 82% 30.02 in 10.0 mi NNW 10.4 mph - N/A   Overcast
3:35 AM 16.7 °F 4.5 °F 12.2 °F 82% 30.03 in 10.0 mi NNW 10.4 mph - N/A   Overcast
3:54 AM 16.5 °F 2.4 °F 12.0 °F 82% 30.03 in 10.0 mi NNW 13.8 mph - N/A   Overcast
4:15 AM 16.2 °F 3.2 °F 11.7 °F 82% 30.04 in 10.0 mi NNW 11.5 mph - N/A Snow Light Snow
4:34 AM 15.8 °F 2.1 °F 11.7 °F 84% 30.06 in 10.0 mi NNW 12.7 mph - N/A Snow Light Snow
4:55 AM 15.8 °F 3.4 °F 11.3 °F 82% 30.07 in 10.0 mi North 10.4 mph - N/A Snow Light Snow
5:15 AM 14.9 °F 3.1 °F 10.8 °F 84% 30.06 in 10.0 mi North 9.2 mph - N/A Snow Light Snow
5:35 AM 14.9 °F 4.0 °F 10.6 °F 83% 30.07 in 10.0 mi North 8.1 mph - N/A   Overcast
5:54 AM 14.7 °F 0.7 °F 10.8 °F 84% 30.08 in 10.0 mi North 12.7 mph 16.1 mph N/A   Overcast
6:15 AM 14.0 °F 0.5 °F 10.4 °F 86% 30.08 in 10.0 mi North 11.5 mph - N/A   Overcast
6:35 AM 13.6 °F 2.5 °F 10.0 °F 86% 30.08 in 10.0 mi North 8.1 mph - N/A   Overcast
6:54 AM 13.1 °F 1.8 °F 9.5 °F 86% 30.10 in 10.0 mi North 8.1 mph - N/A   Overcast
7:15 AM 12.2 °F 2.9 °F 9.0 °F 87% 30.12 in 7.0 mi NNW 5.8 mph - N/A Snow Light Snow
7:34 AM 11.3 °F -0.4 °F 8.4 °F 88% 30.14 in 3.0 mi NNW 8.1 mph - N/A Snow Light Snow
7:55 AM 10.4 °F 2.2 °F 7.7 °F 89% 30.14 in 1.8 mi North 4.6 mph - N/A Snow Light Snow
8:14 AM 10.2 °F 2.0 °F 7.3 °F 88% 30.15 in 7.0 mi NW 4.6 mph - N/A   Clear
8:35 AM 10.6 °F 1.0 °F 7.5 °F 87% 30.16 in 10.0 mi NNW 5.8 mph - N/A   Clear
8:55 AM 9.5 °F -2.6 °F 5.9 °F 85% 30.19 in 10.0 mi NW 8.1 mph - N/A   Clear
9:15 AM 11.1 °F 4.9 °F 7.3 °F 85% 30.19 in 10.0 mi NNW 3.5 mph - N/A   Clear
9:34 AM 12.6 °F 3.4 °F 8.2 °F 83% 30.18 in 10.0 mi North 5.8 mph - N/A   Clear
9:55 AM 13.1 °F 2.8 °F 8.2 °F 81% 30.18 in 10.0 mi NNW 6.9 mph - N/A   Clear
10:15 AM 13.8 °F 4.9 °F 8.6 °F 80% 30.18 in 10.0 mi North 5.8 mph - N/A   Clear
10:34 AM 14.5 °F 8.8 °F 8.4 °F 77% 30.19 in 10.0 mi West 3.5 mph - N/A   Clear
10:55 AM 14.7 °F 9.0 °F 8.6 °F 77% 30.19 in 10.0 mi West 3.5 mph - N/A   Clear
11:14 AM 15.1 °F 6.4 °F 9.0 °F 77% 30.19 in 10.0 mi West 5.8 mph - N/A   Clear
11:35 AM 15.6 °F 7.0 °F 8.6 °F 74% 30.19 in 10.0 mi WNW 5.8 mph - N/A   Clear
11:54 AM 16.2 °F 10.6 °F 9.0 °F 73% 30.18 in 10.0 mi WNW 3.5 mph - N/A   Clear
12:15 PM 16.7 °F - 9.0 °F 72% 30.16 in 10.0 mi Calm Calm - N/A   Clear
12:35 PM 19.2 °F 14.1 °F 9.5 °F 66% 30.16 in 10.0 mi NE 3.5 mph - N/A   Clear
12:54 PM 19.9 °F 11.1 °F 10.0 °F 65% 30.15 in 10.0 mi East 6.9 mph - N/A   Clear
1:15 PM 20.1 °F 12.3 °F 10.2 °F 66% 30.14 in 10.0 mi East 5.8 mph - N/A   Clear
1:35 PM 20.3 °F 13.8 °F 10.6 °F 66% 30.12 in 10.0 mi East 4.6 mph - N/A   Clear
1:55 PM 21.7 °F 13.2 °F 11.3 °F 64% 30.13 in 10.0 mi ESE 6.9 mph - N/A   Clear
2:14 PM 22.1 °F 13.7 °F 11.5 °F 64% 30.13 in 10.0 mi ESE 6.9 mph - N/A   Clear
2:35 PM 22.1 °F 12.8 °F 11.7 °F 64% 30.13 in 10.0 mi SSE 8.1 mph - N/A   Clear
2:54 PM 21.9 °F 13.4 °F 11.8 °F 65% 30.12 in 10.0 mi ESE 6.9 mph - N/A   Clear
3:15 PM 21.6 °F 10.6 °F 11.7 °F 66% 30.12 in 10.0 mi SE 10.4 mph - N/A   Clear
3:34 PM 21.2 °F 10.1 °F 10.6 °F 64% 30.13 in 10.0 mi SE 10.4 mph - N/A   Clear
3:55 PM 21.2 °F 10.9 °F 10.8 °F 64% 30.12 in 10.0 mi SE 9.2 mph - N/A   Clear
4:14 PM 20.8 °F 12.1 °F 11.1 °F 66% 30.12 in 10.0 mi SE 6.9 mph - N/A   Clear
4:35 PM 21.0 °F 10.6 °F 11.3 °F 66% 30.12 in 10.0 mi SE 9.2 mph - N/A   Clear
4:55 PM 20.8 °F 10.4 °F 11.3 °F 67% 30.11 in 10.0 mi SE 9.2 mph - N/A   Clear
5:14 PM 20.1 °F 10.3 °F 11.3 °F 69% 30.11 in 10.0 mi SE 8.1 mph - N/A   Clear
5:35 PM 19.2 °F 10.2 °F 11.3 °F 71% 30.11 in 10.0 mi SSE 6.9 mph - N/A   Clear
5:55 PM 19.4 °F 10.4 °F 11.5 °F 71% 30.12 in 10.0 mi SSE 6.9 mph - N/A   Clear
6:14 PM 19.4 °F 8.6 °F 11.8 °F 72% 30.12 in 10.0 mi SSE 9.2 mph - N/A   Scattered Clouds
6:35 PM 20.3 °F 9.8 °F 12.2 °F 71% 30.13 in 10.0 mi SSE 9.2 mph - N/A   Mostly Cloudy
6:54 PM 20.3 °F 8.3 °F 12.2 °F 71% 30.12 in 10.0 mi SE 11.5 mph - N/A   Overcast
7:15 PM 20.8 °F 8.4 °F 12.6 °F 70% 30.11 in 10.0 mi SSE 12.7 mph - N/A   Overcast
7:34 PM 20.8 °F 7.9 °F 12.7 °F 71% 30.10 in 10.0 mi SSE 13.8 mph 21.9 mph N/A   Overcast
7:55 PM 21.0 °F 8.1 °F 12.9 °F 71% 30.09 in 10.0 mi SSE 13.8 mph - N/A   Overcast
8:15 PM 21.0 °F 8.1 °F 12.9 °F 71% 30.09 in 10.0 mi SSE 13.8 mph 18.4 mph N/A   Overcast
8:34 PM 21.2 °F 7.8 °F 12.9 °F 70% 30.08 in 10.0 mi SE 15.0 mph 19.6 mph N/A   Overcast
8:55 PM 21.2 °F 6.0 °F 12.2 °F 68% 30.07 in 10.0 mi SE 19.6 mph 25.3 mph N/A   Overcast
9:15 PM 21.2 °F 7.3 °F 12.9 °F 70% 30.06 in 10.0 mi SE 16.1 mph 23.0 mph N/A   Overcast
9:35 PM 21.0 °F 6.6 °F 13.1 °F 71% 30.06 in 10.0 mi SSE 17.3 mph 21.9 mph N/A   Overcast
9:55 PM 21.0 °F 8.1 °F 13.1 °F 71% 30.07 in 10.0 mi SSE 13.8 mph 19.6 mph N/A   Overcast
10:14 PM 21.0 °F 9.3 °F 13.1 °F 71% 30.07 in 10.0 mi SSE 11.5 mph 19.6 mph N/A   Overcast
10:35 PM 20.7 °F 6.1 °F 12.9 °F 72% 30.06 in 10.0 mi SSE 17.3 mph 23.0 mph N/A   Overcast
10:55 PM 20.3 °F 6.1 °F 12.2 °F 71% 30.05 in 10.0 mi SSE 16.1 mph 25.3 mph N/A   Mostly Cloudy
11:14 PM 20.1 °F 6.4 °F 12.2 °F 71% 30.05 in 10.0 mi SSE 15.0 mph 21.9 mph N/A   Scattered Clouds
11:35 PM 20.1 °F 5.9 °F 12.4 °F 72% 30.05 in 10.0 mi SSE 16.1 mph 23.0 mph N/A   Mostly Cloudy
11:55 PM 20.1 °F 6.4 °F 12.7 °F 73% 30.05 in 10.0 mi SE 15.0 mph - N/A   Overcast